Weather History for Shannon, Ireland

Change the Weather History Date:

Saturday, November 5, 2011

  Actual Average Record
Temperature  
Mean Temperature 45 °F -  
Max Temperature 53 °F 50 °F 59 °F (1996)
Min Temperature 37 °F 40 °F 35 °F (2012)
Degree Days  
Heating Degree Days 20    
Moisture  
Dew Point 40 °F    
Average Humidity 89    
Maximum Humidity 100    
Minimum Humidity 67    
Precipitation  
Precipitation 0.00 in 0.13 in - ()
Sea Level Pressure  
Sea Level Pressure 29.93 in    
Wind  
Wind Speed 4 mph ()    
Max Wind Speed 8 mph    
Max Gust Speed -    
Visibility 6.3 miles    
Events Fog , Rain    
Averages and records for this station are not official NWS values.
T = Trace of Precipitation, MM = Missing Value Source: Averaged Metar Reports

Daily Weather History Graph

Daily Weather History Graph

Search for Another Location

Airport:

Trip Planner

Search our weather history database for the weather conditions in past years. The results will help you decide how hot, cold, wet, or windy it might be!

Date:

Astronomy

Nov. 05, 2011 Rise Set
Actual Time 7:39 AM GMT 4:58 PM GMT
Civil Twilight 7:02 AM GMT 5:35 PM GMT
Nautical Twilight 6:21 AM GMT 6:16 PM GMT
Astronomical Twilight 5:41 AM GMT 6:56 PM GMT
Moon 2:42 PM GMT (11/5) 1:59 AM GMT (11/5)
Length of Visible Light 10h 32m
Length of Day
9h 19m
Waxing Gibbous, 76% of the Moon is Illuminated
Nov 5
Waxing Gibbous
Nov 10
Full
Nov 18
Last Quarter
Nov 25
New
Dec 2
First Quarter

Hourly Weather History & Observations

Time (GMT) Temp. Windchill Dew Point Humidity Pressure Visibility Wind Dir Wind Speed Gust Speed Precip Events Conditions
12:00 AM 43 °F - 42 °F 93% 29.65 in 16 mi East 4.5 mph - -   Partly Cloudy
12:00 AM 42.8 °F 41.1 °F 42.8 °F 100% 29.65 in 6.2 mi East 3.5 mph - N/A   Partly Cloudy
12:30 AM 39.2 °F 35.9 °F 37.4 °F 93% 29.65 in 6.2 mi NE 4.6 mph - N/A   Partly Cloudy
1:00 AM 39.2 °F 37.0 °F 37.4 °F 93% 29.65 in 6.2 mi East 3.5 mph - N/A   Partly Cloudy
1:30 AM 37.4 °F - 37.4 °F 100% 29.65 in 6.2 mi SE 2.3 mph - N/A   Partly Cloudy
2:00 AM 39.2 °F 37.0 °F 39.2 °F 100% 29.68 in 6.2 mi North 3.5 mph - N/A   Partly Cloudy
2:30 AM 39.2 °F 35.0 °F 37.4 °F 93% 29.68 in 6.2 mi NE 5.8 mph - N/A   Partly Cloudy
3:00 AM 39.2 °F 35.9 °F 37.4 °F 93% 29.71 in 0.3 mi SE 4.6 mph - N/A Fog Fog
3:30 AM 41.0 °F - 41.0 °F 100% 29.71 in 0.5 mi SE 2.3 mph - N/A Fog Fog
4:00 AM 41.0 °F 36.4 °F 39.2 °F 93% 29.74 in 6.2 mi ESE 6.9 mph - N/A Fog Shallow Fog
4:30 AM 41.0 °F 37.1 °F 41.0 °F 100% 29.77 in 6.2 mi ESE 5.8 mph - N/A   Mostly Cloudy
5:00 AM 41.0 °F 38.0 °F 39.2 °F 93% 29.77 in 6.2 mi SE 4.6 mph - N/A   Mostly Cloudy
5:30 AM 41.0 °F 38.0 °F 39.2 °F 93% 29.80 in 6.2 mi East 4.6 mph - N/A   Scattered Clouds
6:00 AM 39.2 °F 37.0 °F 39.2 °F 100% 29.80 in 6.2 mi ESE 3.5 mph - N/A   Scattered Clouds
6:30 AM 39.2 °F - 39.2 °F 100% 29.80 in 6.2 mi Calm Calm - N/A   Scattered Clouds
7:00 AM 37.4 °F - 37.4 °F 100% 29.83 in 6.2 mi ESE 2.3 mph - N/A   Partly Cloudy
7:30 AM 37.4 °F 33.8 °F 35.6 °F 93% 29.86 in 6.2 mi North 4.6 mph - N/A Fog Shallow Fog
8:00 AM 37.4 °F - 37.4 °F 100% 29.86 in 3.7 mi Variable 2.3 mph - N/A Fog Shallow Fog
8:30 AM 39.2 °F - 39.2 °F 100% 29.89 in 5.0 mi North 1.2 mph - N/A Fog Fog
9:00 AM 39.2 °F - 39.2 °F 100% 29.89 in 6.2 mi North 1.2 mph - N/A Fog Shallow Fog
9:30 AM 44.6 °F - 44.6 °F 100% 29.89 in 6.2 mi WSW 2.3 mph - N/A   Scattered Clouds
10:00 AM 46.4 °F 42.4 °F 44.6 °F 93% 29.92 in 6.2 mi West 8.1 mph - N/A   Partly Cloudy
10:30 AM 48.2 °F - 44.6 °F 87% 29.92 in 6.2 mi WNW 6.9 mph - N/A Rain Light Rain Showers
11:00 AM 48.2 °F - 44.6 °F 87% 29.92 in 6.2 mi West 4.6 mph - N/A   Partly Cloudy
11:30 AM 50.0 °F - 42.8 °F 76% 29.95 in 6.2 mi WSW 4.6 mph - N/A   Partly Cloudy
12:00 PM 51 °F - 44 °F 70% 29.96 in 37 mi WSW 4.5 mph - -   Partly Cloudy
12:00 PM 50.0 °F - 44.6 °F 82% 29.95 in 6.2 mi WSW 4.6 mph - N/A   Partly Cloudy
12:30 PM 51.8 °F - 44.6 °F 76% 29.95 in 6.2 mi SW 6.9 mph - N/A   Scattered Clouds
1:00 PM 51.8 °F - 44.6 °F 76% 29.98 in 6.2 mi WSW 4.6 mph - N/A   Scattered Clouds
1:30 PM 50.0 °F - 42.8 °F 76% 29.98 in 6.2 mi North 2.3 mph - N/A   Scattered Clouds
2:00 PM 51.8 °F - 41.0 °F 67% 29.98 in 6.2 mi WNW 8.1 mph - N/A   Partly Cloudy
2:30 PM 51.8 °F - 42.8 °F 71% 30.01 in 6.2 mi West 6.9 mph - N/A   Partly Cloudy
3:00 PM 51.8 °F - 42.8 °F 71% 30.01 in 6.2 mi NW 8.1 mph - N/A   Partly Cloudy
3:30 PM 50.0 °F - 41.0 °F 71% 30.01 in 6.2 mi West 8.1 mph - N/A   Partly Cloudy
4:00 PM 50.0 °F - 41.0 °F 71% 30.04 in 6.2 mi WNW 5.8 mph - N/A   Partly Cloudy
4:30 PM 48.2 °F - 41.0 °F 76% 30.04 in 6.2 mi WNW 4.6 mph - N/A   Partly Cloudy
5:00 PM 48.2 °F - 41.0 °F 76% 30.06 in 6.2 mi West 3.5 mph - N/A   Partly Cloudy
5:30 PM 46.4 °F 45.2 °F 41.0 °F 81% 30.06 in 6.2 mi West 3.5 mph - N/A   Partly Cloudy
6:00 PM 43 °F - 40 °F 84% 30.11 in 16 mi WNW 4.5 mph - -   Scattered Clouds
6:00 PM 44.6 °F 43.1 °F 39.2 °F 81% 30.09 in 6.2 mi WNW 3.5 mph - N/A   Partly Cloudy
6:30 PM 42.8 °F - 41.0 °F 93% 30.12 in 6.2 mi WNW 1.2 mph - N/A   Partly Cloudy
7:00 PM 42.8 °F - 39.2 °F 87% 30.12 in 6.2 mi Variable 1.2 mph - N/A   Partly Cloudy
7:30 PM 41.0 °F - 39.2 °F 93% 30.12 in 6.2 mi Calm Calm - N/A   Partly Cloudy
8:00 PM 42.8 °F - 41.0 °F 93% 30.15 in 6.2 mi East 2.3 mph - N/A   Partly Cloudy
8:30 PM 39.2 °F - 37.4 °F 93% 30.15 in 6.2 mi SSE 2.3 mph - N/A   Partly Cloudy
9:00 PM 39.2 °F - 37.4 °F 93% 30.15 in - ESE 1.2 mph - N/A   Clear
9:30 PM 37.4 °F - 35.6 °F 93% 30.18 in - ESE 1.2 mph - N/A   Clear
10:00 PM 37.4 °F - 35.6 °F 93% 30.18 in - ENE 1.2 mph - N/A   Clear
10:30 PM 37.4 °F - 37.4 °F 100% 30.18 in - ESE 2.3 mph - N/A   Clear
11:00 PM 39.2 °F 35.9 °F 37.4 °F 93% 30.21 in - ESE 4.6 mph - N/A   Clear
11:30 PM 39.2 °F 37.0 °F 39.2 °F 100% 30.21 in - ESE 3.5 mph - N/A   Clear